Year,Month,Day,Hour,Minute,Value (Times are PST for temperature in C)
2014,12,12,00,00,8.80
2014,12,12,00,01,8.80
2014,12,12,00,02,8.80
2014,12,12,00,03,8.80
2014,12,12,00,04,8.90
2014,12,12,00,05,8.90
2014,12,12,00,06,8.90
2014,12,12,00,07,8.90
2014,12,12,00,08,8.90
2014,12,12,00,09,8.90
2014,12,12,00,10,8.90
2014,12,12,00,11,8.90
2014,12,12,00,12,8.80
2014,12,12,00,13,8.80
2014,12,12,00,14,8.80
2014,12,12,00,15,8.80
2014,12,12,00,16,8.80
2014,12,12,00,17,8.80
2014,12,12,00,18,8.90
2014,12,12,00,19,8.90
2014,12,12,00,20,8.90
2014,12,12,00,21,8.90
2014,12,12,00,22,8.90
2014,12,12,00,23,8.90
2014,12,12,00,24,8.80
2014,12,12,00,25,8.80
2014,12,12,00,26,8.80
2014,12,12,00,27,8.80
2014,12,12,00,28,8.80
2014,12,12,00,29,8.80
2014,12,12,00,30,8.80
2014,12,12,00,31,8.80
2014,12,12,00,32,8.80
2014,12,12,00,33,8.80
2014,12,12,00,34,8.80
2014,12,12,00,35,8.80
2014,12,12,00,36,8.80
2014,12,12,00,37,8.80
2014,12,12,00,38,8.80
2014,12,12,00,39,8.80
2014,12,12,00,40,8.80
2014,12,12,00,41,8.80
2014,12,12,00,42,8.80
2014,12,12,00,43,8.90
2014,12,12,00,44,8.90
2014,12,12,00,45,8.90
2014,12,12,00,46,8.90
2014,12,12,00,47,8.90
2014,12,12,00,48,8.90
2014,12,12,00,49,8.90
2014,12,12,00,50,8.90
2014,12,12,00,51,8.90
2014,12,12,00,52,8.90
2014,12,12,00,53,8.90
2014,12,12,00,54,8.90
2014,12,12,00,55,9.00
2014,12,12,00,56,9.00
2014,12,12,00,57,9.00
2014,12,12,00,58,9.10
2014,12,12,00,59,9.10
2014,12,12,01,00,9.10
2014,12,12,01,01,9.10
2014,12,12,01,02,9.10
2014,12,12,01,03,9.10
2014,12,12,01,04,9.20
2014,12,12,01,05,9.20
2014,12,12,01,06,9.20
2014,12,12,01,07,9.20
2014,12,12,01,08,9.20
2014,12,12,01,09,9.20
2014,12,12,01,10,9.20
2014,12,12,01,11,9.20
2014,12,12,01,12,9.20
2014,12,12,01,13,9.20
2014,12,12,01,14,9.20
2014,12,12,01,15,9.20
2014,12,12,01,16,9.20
2014,12,12,01,17,9.20
2014,12,12,01,18,9.20
2014,12,12,01,19,9.20
2014,12,12,01,20,9.20
2014,12,12,01,21,9.30
2014,12,12,01,22,9.30
2014,12,12,01,23,9.30
2014,12,12,01,24,9.30
2014,12,12,01,25,9.40
2014,12,12,01,26,9.40
2014,12,12,01,27,9.40
2014,12,12,01,28,9.40
2014,12,12,01,29,9.40
2014,12,12,01,30,9.40
2014,12,12,01,31,9.40
2014,12,12,01,32,9.40
2014,12,12,01,33,9.50
2014,12,12,01,34,9.50
2014,12,12,01,35,9.50
2014,12,12,01,36,9.50
2014,12,12,01,37,9.50
2014,12,12,01,38,9.50
2014,12,12,01,39,9.50
2014,12,12,01,40,9.60
2014,12,12,01,41,9.60
2014,12,12,01,42,9.60
2014,12,12,01,43,9.60
2014,12,12,01,44,9.60
2014,12,12,01,45,9.70
2014,12,12,01,46,9.70
2014,12,12,01,47,9.70
2014,12,12,01,48,9.70
2014,12,12,01,49,9.70
2014,12,12,01,50,9.70
2014,12,12,01,51,9.70
2014,12,12,01,52,9.70
2014,12,12,01,53,9.70
2014,12,12,01,54,9.70
2014,12,12,01,55,9.70
2014,12,12,01,56,9.70
2014,12,12,01,57,9.70
2014,12,12,01,58,9.70
2014,12,12,01,59,9.70
2014,12,12,02,00,9.70
2014,12,12,02,01,9.70
2014,12,12,02,02,9.70
2014,12,12,02,03,9.70
2014,12,12,02,04,9.70
2014,12,12,02,05,9.70
2014,12,12,02,06,9.60
2014,12,12,02,07,9.60
2014,12,12,02,08,9.60
2014,12,12,02,09,9.60
2014,12,12,02,10,9.60
2014,12,12,02,11,9.60
2014,12,12,02,12,9.60
2014,12,12,02,13,9.50
2014,12,12,02,14,9.50
2014,12,12,02,15,9.50
2014,12,12,02,16,9.50
2014,12,12,02,17,9.50
2014,12,12,02,18,9.60
2014,12,12,02,19,9.60
2014,12,12,02,20,9.60
2014,12,12,02,21,9.70
2014,12,12,02,22,9.70
2014,12,12,02,23,9.70
2014,12,12,02,24,9.70
2014,12,12,02,25,9.70
2014,12,12,02,26,9.70
2014,12,12,02,27,9.70
2014,12,12,02,28,9.70
2014,12,12,02,29,9.70
2014,12,12,02,30,9.70
2014,12,12,02,31,9.70
2014,12,12,02,32,9.70
2014,12,12,02,33,9.70
2014,12,12,02,34,9.70
2014,12,12,02,35,9.70
2014,12,12,02,36,9.70
2014,12,12,02,37,9.70
2014,12,12,02,38,9.70
2014,12,12,02,39,9.70
2014,12,12,02,40,9.70
2014,12,12,02,41,9.70
2014,12,12,02,42,9.70
2014,12,12,02,43,9.70
2014,12,12,02,44,9.70
2014,12,12,02,45,9.70
2014,12,12,02,46,9.70
2014,12,12,02,47,9.70
2014,12,12,02,48,9.70
2014,12,12,02,49,9.70
2014,12,12,02,50,9.70
2014,12,12,02,51,9.70
2014,12,12,02,52,9.60
2014,12,12,02,53,9.60
2014,12,12,02,54,9.60
2014,12,12,02,55,9.60
2014,12,12,02,56,9.60
2014,12,12,02,57,9.60
2014,12,12,02,58,9.50
2014,12,12,02,59,9.50
2014,12,12,03,00,9.50
2014,12,12,03,01,9.50
2014,12,12,03,02,9.50
2014,12,12,03,03,9.50
2014,12,12,03,04,9.50
2014,12,12,03,05,9.50
2014,12,12,03,06,9.50
2014,12,12,03,07,9.50
2014,12,12,03,08,9.50
2014,12,12,03,09,9.50
2014,12,12,03,10,9.50
2014,12,12,03,11,9.50
2014,12,12,03,12,9.50
2014,12,12,03,13,9.50
2014,12,12,03,14,9.50
2014,12,12,03,15,9.50
2014,12,12,03,16,9.50
2014,12,12,03,17,9.50
2014,12,12,03,18,9.50
2014,12,12,03,19,9.50
2014,12,12,03,20,9.50
2014,12,12,03,21,9.50
2014,12,12,03,22,9.50
2014,12,12,03,23,9.50
2014,12,12,03,24,9.50
2014,12,12,03,25,9.50
2014,12,12,03,26,9.50
2014,12,12,03,27,9.50
2014,12,12,03,28,9.50
2014,12,12,03,29,9.50
2014,12,12,03,30,9.50
2014,12,12,03,31,9.50
2014,12,12,03,32,9.40
2014,12,12,03,33,9.40
2014,12,12,03,34,9.40
2014,12,12,03,35,9.40
2014,12,12,03,36,9.40
2014,12,12,03,37,9.40
2014,12,12,03,38,9.30
2014,12,12,03,39,9.30
2014,12,12,03,40,9.30
2014,12,12,03,41,9.30
2014,12,12,03,42,9.30
2014,12,12,03,43,9.30
2014,12,12,03,44,9.30
2014,12,12,03,45,9.30
2014,12,12,03,46,9.30
2014,12,12,03,47,9.30
2014,12,12,03,48,9.30
2014,12,12,03,49,9.30
2014,12,12,03,50,9.30
2014,12,12,03,51,9.30
2014,12,12,03,52,9.30
2014,12,12,03,53,9.30
2014,12,12,03,54,9.30
2014,12,12,03,55,9.30
2014,12,12,03,56,9.40
2014,12,12,03,57,9.40
2014,12,12,03,58,9.40
2014,12,12,03,59,9.40
2014,12,12,04,00,9.40
2014,12,12,04,01,9.40
2014,12,12,04,02,9.50
2014,12,12,04,03,9.50
2014,12,12,04,04,9.50
2014,12,12,04,05,9.50
2014,12,12,04,06,9.50
2014,12,12,04,07,9.50
2014,12,12,04,08,9.50
2014,12,12,04,09,9.50
2014,12,12,04,10,9.50
2014,12,12,04,11,9.50
2014,12,12,04,12,9.40
2014,12,12,04,13,9.40
2014,12,12,04,14,9.40
2014,12,12,04,15,9.40
2014,12,12,04,16,9.40
2014,12,12,04,17,9.40
2014,12,12,04,18,9.40
2014,12,12,04,19,9.40
2014,12,12,04,20,9.40
2014,12,12,04,21,9.40
2014,12,12,04,22,9.40
2014,12,12,04,23,9.40
2014,12,12,04,24,9.40
2014,12,12,04,25,9.40
2014,12,12,04,26,9.30
2014,12,12,04,27,9.30
2014,12,12,04,28,9.30
2014,12,12,04,29,9.30
2014,12,12,04,30,9.30
2014,12,12,04,31,9.30
2014,12,12,04,32,9.30
2014,12,12,04,33,9.30
2014,12,12,04,34,9.20
2014,12,12,04,35,9.20
2014,12,12,04,36,9.20
2014,12,12,04,37,9.20
2014,12,12,04,38,9.20
2014,12,12,04,39,9.20
2014,12,12,04,40,9.20
2014,12,12,04,41,9.20
2014,12,12,04,42,9.20
2014,12,12,04,43,9.20
2014,12,12,04,44,9.20
2014,12,12,04,45,9.20
2014,12,12,04,46,9.20
2014,12,12,04,47,9.20
2014,12,12,04,48,9.20
2014,12,12,04,49,9.20
2014,12,12,04,50,9.20
2014,12,12,04,51,9.20
2014,12,12,04,52,9.20
2014,12,12,04,53,9.20
2014,12,12,04,54,9.10
2014,12,12,04,55,9.10
2014,12,12,04,56,9.10
2014,12,12,04,57,9.10
2014,12,12,04,58,9.10
2014,12,12,04,59,9.20
2014,12,12,05,00,9.20
2014,12,12,05,01,9.20
2014,12,12,05,02,9.20
2014,12,12,05,03,9.20
2014,12,12,05,04,9.20
2014,12,12,05,05,9.20
2014,12,12,05,06,9.20
2014,12,12,05,07,9.20
2014,12,12,05,08,9.20
2014,12,12,05,09,9.20
2014,12,12,05,10,9.20
2014,12,12,05,11,9.20
2014,12,12,05,12,9.20
2014,12,12,05,13,9.10
2014,12,12,05,14,9.10
2014,12,12,05,15,9.10
2014,12,12,05,16,9.00
2014,12,12,05,17,9.00
2014,12,12,05,18,9.00
2014,12,12,05,19,9.00
2014,12,12,05,20,9.00
2014,12,12,05,21,9.00
2014,12,12,05,22,9.00
2014,12,12,05,23,9.00
2014,12,12,05,24,9.00
2014,12,12,05,25,9.00
2014,12,12,05,26,9.00
2014,12,12,05,27,9.00
2014,12,12,05,28,9.00
2014,12,12,05,29,9.00
2014,12,12,05,30,9.00
2014,12,12,05,31,9.00
2014,12,12,05,32,9.00
2014,12,12,05,33,9.00
2014,12,12,05,34,9.00
2014,12,12,05,35,8.90
2014,12,12,05,36,8.90
2014,12,12,05,37,8.90
2014,12,12,05,38,8.90
2014,12,12,05,39,8.90
2014,12,12,05,40,8.90
2014,12,12,05,41,8.90
2014,12,12,05,42,8.90
2014,12,12,05,43,8.90
2014,12,12,05,44,8.80
2014,12,12,05,45,8.80
2014,12,12,05,46,8.80
2014,12,12,05,47,8.70
2014,12,12,05,48,8.70
2014,12,12,05,49,8.70
2014,12,12,05,50,8.70
2014,12,12,05,51,8.70
2014,12,12,05,52,8.70
2014,12,12,05,53,8.70
2014,12,12,05,54,8.70
2014,12,12,05,55,8.70
2014,12,12,05,56,8.70
2014,12,12,05,57,8.70
2014,12,12,05,58,8.70
2014,12,12,05,59,8.70
2014,12,12,06,00,8.70
2014,12,12,06,01,8.70
2014,12,12,06,02,8.70
2014,12,12,06,03,8.70
2014,12,12,06,04,8.70
2014,12,12,06,05,8.70
2014,12,12,06,06,8.70
2014,12,12,06,07,8.70
2014,12,12,06,08,8.70
2014,12,12,06,09,8.70
2014,12,12,06,10,8.70
2014,12,12,06,11,8.70
2014,12,12,06,12,8.70
2014,12,12,06,13,8.70
2014,12,12,06,14,8.70
2014,12,12,06,15,8.70
2014,12,12,06,16,8.70
2014,12,12,06,17,8.70
2014,12,12,06,18,8.70
2014,12,12,06,19,8.70
2014,12,12,06,20,8.70
2014,12,12,06,21,8.70
2014,12,12,06,22,8.70
2014,12,12,06,23,8.70
2014,12,12,06,24,8.70
2014,12,12,06,25,8.70
2014,12,12,06,26,8.70
2014,12,12,06,27,8.70
2014,12,12,06,28,8.70
2014,12,12,06,29,8.70
2014,12,12,06,30,8.70
2014,12,12,06,31,8.70
2014,12,12,06,32,8.70
2014,12,12,06,33,8.70
2014,12,12,06,34,8.70
2014,12,12,06,35,8.70
2014,12,12,06,36,8.70
2014,12,12,06,37,8.70
2014,12,12,06,38,8.70
2014,12,12,06,39,8.70
2014,12,12,06,40,8.70
2014,12,12,06,41,8.70
2014,12,12,06,42,8.70
2014,12,12,06,43,8.70
2014,12,12,06,44,8.70
2014,12,12,06,45,8.70
2014,12,12,06,46,8.70
2014,12,12,06,47,8.70
2014,12,12,06,48,8.70
2014,12,12,06,49,8.70
2014,12,12,06,50,8.80
2014,12,12,06,51,8.80
2014,12,12,06,52,8.80
2014,12,12,06,53,8.90
2014,12,12,06,54,8.90
2014,12,12,06,55,8.90
2014,12,12,06,56,8.90
2014,12,12,06,57,8.90
2014,12,12,06,58,8.90
2014,12,12,06,59,8.90
2014,12,12,07,00,8.90
2014,12,12,07,01,8.90
2014,12,12,07,02,8.90
2014,12,12,07,03,8.90
2014,12,12,07,04,8.90
2014,12,12,07,05,8.80
2014,12,12,07,06,8.80
2014,12,12,07,07,8.70
2014,12,12,07,08,8.70
2014,12,12,07,09,8.70
2014,12,12,07,10,8.70
2014,12,12,07,11,8.70
2014,12,12,07,12,8.70
2014,12,12,07,13,8.70
2014,12,12,07,14,8.70
2014,12,12,07,15,8.70
2014,12,12,07,16,8.70
2014,12,12,07,17,8.60
2014,12,12,07,18,8.60
2014,12,12,07,19,8.60
2014,12,12,07,20,8.50
2014,12,12,07,21,8.50
2014,12,12,07,22,8.50
2014,12,12,07,23,8.50
2014,12,12,07,24,8.40
2014,12,12,07,25,8.40
2014,12,12,07,26,8.40
2014,12,12,07,27,8.30
2014,12,12,07,28,8.30
2014,12,12,07,29,8.20
2014,12,12,07,30,8.20
2014,12,12,07,31,8.20
2014,12,12,07,32,8.20
2014,12,12,07,33,8.20
2014,12,12,07,34,8.10
2014,12,12,07,35,8.10
2014,12,12,07,36,8.10
2014,12,12,07,37,8.00
2014,12,12,07,38,8.00
2014,12,12,07,39,8.00
2014,12,12,07,40,8.00
2014,12,12,07,41,7.90
2014,12,12,07,42,7.90
2014,12,12,07,43,7.90
2014,12,12,07,44,7.90
2014,12,12,07,45,7.90
2014,12,12,07,46,7.80
2014,12,12,07,47,7.80
2014,12,12,07,48,7.80
2014,12,12,07,49,7.80
2014,12,12,07,50,7.80
2014,12,12,07,51,7.70
2014,12,12,07,52,7.70
2014,12,12,07,53,7.70
2014,12,12,07,54,7.70
2014,12,12,07,55,7.70
2014,12,12,07,56,7.70
2014,12,12,07,57,7.70
2014,12,12,07,58,7.70
2014,12,12,07,59,7.70
2014,12,12,08,00,7.70
2014,12,12,08,01,7.70
2014,12,12,08,02,7.70
2014,12,12,08,03,7.70
2014,12,12,08,04,7.70
2014,12,12,08,05,7.70
2014,12,12,08,06,7.70
2014,12,12,08,07,7.70
2014,12,12,08,08,7.70
2014,12,12,08,09,7.70
2014,12,12,08,10,7.80
2014,12,12,08,11,7.80
2014,12,12,08,12,7.80
2014,12,12,08,13,7.80
2014,12,12,08,14,7.80
2014,12,12,08,15,7.80
2014,12,12,08,16,7.80
2014,12,12,08,17,7.90
2014,12,12,08,18,7.90
2014,12,12,08,19,7.90
2014,12,12,08,20,8.00
2014,12,12,08,21,8.00
2014,12,12,08,22,8.00
2014,12,12,08,23,8.10
2014,12,12,08,24,8.10
2014,12,12,08,25,8.10
2014,12,12,08,26,8.10
2014,12,12,08,27,8.10
2014,12,12,08,28,8.20
2014,12,12,08,29,8.20
2014,12,12,08,30,8.20
2014,12,12,08,31,8.20
2014,12,12,08,32,8.20
2014,12,12,08,33,8.20
2014,12,12,08,34,8.20
2014,12,12,08,35,8.20
2014,12,12,08,36,8.20
2014,12,12,08,37,8.20
2014,12,12,08,38,8.30
2014,12,12,08,39,8.30
2014,12,12,08,40,8.30
2014,12,12,08,41,8.30
2014,12,12,08,42,8.30
2014,12,12,08,43,8.30
2014,12,12,08,44,8.30
2014,12,12,08,45,8.30
2014,12,12,08,46,8.30
2014,12,12,08,47,8.30
2014,12,12,08,48,8.20
2014,12,12,08,49,8.20
2014,12,12,08,50,8.20
2014,12,12,08,51,8.20
2014,12,12,08,52,8.30
2014,12,12,08,53,8.30
2014,12,12,08,54,8.30
2014,12,12,08,55,8.30
2014,12,12,08,56,8.30
2014,12,12,08,57,8.30
2014,12,12,08,58,8.30
2014,12,12,08,59,8.20
2014,12,12,09,00,8.20
2014,12,12,09,01,8.20
2014,12,12,09,02,8.20
2014,12,12,09,03,8.20
2014,12,12,09,04,8.20
2014,12,12,09,05,8.20
2014,12,12,09,06,8.20
2014,12,12,09,07,8.20
2014,12,12,09,08,8.20
2014,12,12,09,09,8.20
2014,12,12,09,10,8.20
2014,12,12,09,11,8.20
2014,12,12,09,12,8.10
2014,12,12,09,13,8.10
2014,12,12,09,14,8.10
2014,12,12,09,15,8.10
2014,12,12,09,16,8.10
2014,12,12,09,17,8.10
2014,12,12,09,18,8.00
2014,12,12,09,19,8.00
2014,12,12,09,20,8.00
2014,12,12,09,21,8.00
2014,12,12,09,22,8.00
2014,12,12,09,23,8.00
2014,12,12,09,24,8.00
2014,12,12,09,25,8.00
2014,12,12,09,26,8.00
2014,12,12,09,27,8.00
2014,12,12,09,28,8.00
2014,12,12,09,29,8.00
2014,12,12,09,30,8.00
2014,12,12,09,31,8.00
2014,12,12,09,32,8.00
2014,12,12,09,33,8.10
2014,12,12,09,34,8.10
2014,12,12,09,35,8.10
2014,12,12,09,36,8.10
2014,12,12,09,37,8.10
2014,12,12,09,38,8.10
2014,12,12,09,39,8.10
2014,12,12,09,40,8.20
2014,12,12,09,41,8.20
2014,12,12,09,42,8.20
2014,12,12,09,43,8.20
2014,12,12,09,44,8.20
2014,12,12,09,45,8.20
2014,12,12,09,46,8.20
2014,12,12,09,47,8.20
2014,12,12,09,48,8.20
2014,12,12,09,49,8.20
2014,12,12,09,50,8.30
2014,12,12,09,51,8.30
2014,12,12,09,52,8.30
2014,12,12,09,53,8.30
2014,12,12,09,54,8.30
2014,12,12,09,55,8.40
2014,12,12,09,56,8.40
2014,12,12,09,57,8.40
2014,12,12,09,58,8.40
2014,12,12,09,59,8.40
2014,12,12,10,00,8.40
2014,12,12,10,01,8.50
2014,12,12,10,02,8.50
2014,12,12,10,03,8.50
2014,12,12,10,04,8.50
2014,12,12,10,05,8.50
2014,12,12,10,06,8.50
2014,12,12,10,07,8.60
2014,12,12,10,08,8.60
2014,12,12,10,09,8.60
2014,12,12,10,10,8.60
2014,12,12,10,11,8.60
2014,12,12,10,12,8.70
2014,12,12,10,13,8.70
2014,12,12,10,14,8.70
2014,12,12,10,15,8.70
2014,12,12,10,16,8.70
2014,12,12,10,17,8.70
2014,12,12,10,18,8.70
2014,12,12,10,19,8.70
2014,12,12,10,20,8.70
2014,12,12,10,21,8.70
2014,12,12,10,22,8.70
2014,12,12,10,23,8.80
2014,12,12,10,24,8.80
2014,12,12,10,25,8.80
2014,12,12,10,26,8.80
2014,12,12,10,27,8.80
2014,12,12,10,28,8.90
2014,12,12,10,29,8.90
2014,12,12,10,30,8.90
2014,12,12,10,31,8.90
2014,12,12,10,32,8.90
2014,12,12,10,33,9.00
2014,12,12,10,34,9.00
2014,12,12,10,35,9.00
2014,12,12,10,36,9.00
2014,12,12,10,37,9.00
2014,12,12,10,38,9.00
2014,12,12,10,39,9.00
2014,12,12,10,40,9.00
2014,12,12,10,41,9.00
2014,12,12,10,42,9.00
2014,12,12,10,43,9.00
2014,12,12,10,44,9.00
2014,12,12,10,45,9.00
2014,12,12,10,46,9.00
2014,12,12,10,47,9.00
2014,12,12,10,48,9.00
2014,12,12,10,49,9.00
2014,12,12,10,50,9.00
2014,12,12,10,51,9.10
2014,12,12,10,52,9.10
2014,12,12,10,53,9.10
2014,12,12,10,54,9.10
2014,12,12,10,55,9.10
2014,12,12,10,56,9.10
2014,12,12,10,57,9.10
2014,12,12,10,58,9.10
2014,12,12,10,59,9.10
2014,12,12,11,00,9.00
2014,12,12,11,01,9.00
2014,12,12,11,02,9.00
2014,12,12,11,03,9.00
2014,12,12,11,04,9.00
2014,12,12,11,05,9.00
2014,12,12,11,06,8.90
2014,12,12,11,07,8.90
2014,12,12,11,08,8.90
2014,12,12,11,09,8.90
2014,12,12,11,10,8.90
2014,12,12,11,11,8.90
2014,12,12,11,12,8.90
2014,12,12,11,13,8.90
2014,12,12,11,14,8.90
2014,12,12,11,15,8.90
2014,12,12,11,16,8.90
2014,12,12,11,17,8.90
2014,12,12,11,18,8.90
2014,12,12,11,19,8.90
2014,12,12,11,20,8.90
2014,12,12,11,21,8.90
2014,12,12,11,22,9.00
2014,12,12,11,23,9.00
2014,12,12,11,24,9.00
2014,12,12,11,25,9.00
2014,12,12,11,26,9.10
2014,12,12,11,27,9.10
2014,12,12,11,28,9.10
2014,12,12,11,29,9.20
2014,12,12,11,30,9.20
2014,12,12,11,31,9.20
2014,12,12,11,32,9.20
2014,12,12,11,33,9.20
2014,12,12,11,34,9.20
2014,12,12,11,35,9.20
2014,12,12,11,36,9.20
2014,12,12,11,37,9.20
2014,12,12,11,38,9.20
2014,12,12,11,39,9.20
2014,12,12,11,40,9.20
2014,12,12,11,41,9.20
2014,12,12,11,42,9.20
2014,12,12,11,43,9.30
2014,12,12,11,44,9.30
2014,12,12,11,45,9.30
2014,12,12,11,46,9.40
2014,12,12,11,47,9.40
2014,12,12,11,48,9.40
2014,12,12,11,49,9.40
2014,12,12,11,50,9.40
2014,12,12,11,51,9.40
2014,12,12,11,52,9.40
2014,12,12,11,53,9.40
2014,12,12,11,54,9.50
2014,12,12,11,55,9.50
2014,12,12,11,56,9.50
2014,12,12,11,57,9.50
2014,12,12,11,58,9.50
2014,12,12,11,59,9.60
2014,12,12,12,00,9.60
2014,12,12,12,01,9.70
2014,12,12,12,02,9.70
2014,12,12,12,03,9.70
2014,12,12,12,04,9.70
2014,12,12,12,05,9.80
2014,12,12,12,06,9.80
2014,12,12,12,07,9.80
2014,12,12,12,08,9.90
2014,12,12,12,09,9.90
2014,12,12,12,10,9.90
2014,12,12,12,11,9.90
2014,12,12,12,12,9.80
2014,12,12,12,13,9.80
2014,12,12,12,14,9.70
2014,12,12,12,15,9.70
2014,12,12,12,16,9.70
2014,12,12,12,17,9.70
2014,12,12,12,18,9.80
2014,12,12,12,19,9.80
2014,12,12,12,20,9.80
2014,12,12,12,21,9.80
2014,12,12,12,22,9.90
2014,12,12,12,23,9.90
2014,12,12,12,24,9.90
2014,12,12,12,25,9.90
2014,12,12,12,26,9.90
2014,12,12,12,27,9.90
2014,12,12,12,28,9.90
2014,12,12,12,29,9.90
2014,12,12,12,30,9.90
2014,12,12,12,31,9.90
2014,12,12,12,32,9.80
2014,12,12,12,33,9.80
2014,12,12,12,34,9.80
2014,12,12,12,35,9.80
2014,12,12,12,36,9.80
2014,12,12,12,37,9.80
2014,12,12,12,38,9.80
2014,12,12,12,39,9.80
2014,12,12,12,40,9.80
2014,12,12,12,41,9.80
2014,12,12,12,42,9.80
2014,12,12,12,43,9.80
2014,12,12,12,44,9.80
2014,12,12,12,45,9.80
2014,12,12,12,46,9.80
2014,12,12,12,47,9.80
2014,12,12,12,48,9.80
2014,12,12,12,49,9.80
2014,12,12,12,50,9.80
2014,12,12,12,51,9.80
2014,12,12,12,52,9.80
2014,12,12,12,53,9.80
2014,12,12,12,54,9.80
2014,12,12,12,55,9.90
2014,12,12,12,56,9.90
2014,12,12,12,57,9.90
2014,12,12,12,58,9.90
2014,12,12,12,59,9.90
2014,12,12,13,00,9.90
2014,12,12,13,01,9.90
2014,12,12,13,02,9.90
2014,12,12,13,03,9.90
2014,12,12,13,04,9.90
2014,12,12,13,05,9.90
2014,12,12,13,06,9.90
2014,12,12,13,07,9.90
2014,12,12,13,08,9.90
2014,12,12,13,09,9.90
2014,12,12,13,10,9.90
2014,12,12,13,11,9.90
2014,12,12,13,12,9.90
2014,12,12,13,13,9.90
2014,12,12,13,14,9.90
2014,12,12,13,15,9.90
2014,12,12,13,16,9.90
2014,12,12,13,17,9.90
2014,12,12,13,18,9.90
2014,12,12,13,19,9.90
2014,12,12,13,20,9.90
2014,12,12,13,21,9.90
2014,12,12,13,22,9.90
2014,12,12,13,23,9.90
2014,12,12,13,24,9.90
2014,12,12,13,25,9.90
2014,12,12,13,26,9.90
2014,12,12,13,27,9.90
2014,12,12,13,28,9.90
2014,12,12,13,29,9.90
2014,12,12,13,30,9.80
2014,12,12,13,31,9.80
2014,12,12,13,32,9.80
2014,12,12,13,33,9.80
2014,12,12,13,34,9.80
2014,12,12,13,35,9.80
2014,12,12,13,36,9.80
2014,12,12,13,37,9.80
2014,12,12,13,38,9.80
2014,12,12,13,39,9.80
2014,12,12,13,40,9.80
2014,12,12,13,41,9.80
2014,12,12,13,42,9.80
2014,12,12,13,43,9.80
2014,12,12,13,44,9.80
2014,12,12,13,45,9.80
2014,12,12,13,46,9.80
2014,12,12,13,47,9.80
2014,12,12,13,48,9.80
2014,12,12,13,49,9.80
2014,12,12,13,50,9.80
2014,12,12,13,51,9.80
2014,12,12,13,52,9.80
2014,12,12,13,53,9.80
2014,12,12,13,54,9.80
2014,12,12,13,55,9.80
2014,12,12,13,56,9.80
2014,12,12,13,57,9.80
2014,12,12,13,58,9.80
2014,12,12,13,59,9.80
2014,12,12,14,00,9.80
2014,12,12,14,01,9.80
2014,12,12,14,02,9.80
2014,12,12,14,03,9.90
2014,12,12,14,04,9.90
2014,12,12,14,05,9.90
2014,12,12,14,06,9.90
2014,12,12,14,07,9.90
2014,12,12,14,08,9.90
2014,12,12,14,09,9.90
2014,12,12,14,10,9.90
2014,12,12,14,11,9.90
2014,12,12,14,12,9.90
2014,12,12,14,13,9.90
2014,12,12,14,14,9.90
2014,12,12,14,15,9.90
2014,12,12,14,16,9.90
2014,12,12,14,17,9.90
2014,12,12,14,18,10.00
2014,12,12,14,19,10.10
2014,12,12,14,20,10.10
2014,12,12,14,21,10.10
2014,12,12,14,22,10.10
2014,12,12,14,23,10.10
2014,12,12,14,24,10.10
2014,12,12,14,25,10.00
2014,12,12,14,26,9.90
2014,12,12,14,27,9.90
2014,12,12,14,28,9.90
2014,12,12,14,29,9.90
2014,12,12,14,30,9.90
2014,12,12,14,31,9.90
2014,12,12,14,32,9.90
2014,12,12,14,33,9.90
2014,12,12,14,34,9.90
2014,12,12,14,35,9.90
2014,12,12,14,36,9.90
2014,12,12,14,37,9.90
2014,12,12,14,38,9.90
2014,12,12,14,39,9.90
2014,12,12,14,40,9.80
2014,12,12,14,41,9.80
2014,12,12,14,42,9.80
2014,12,12,14,43,9.80
2014,12,12,14,44,9.80
2014,12,12,14,45,9.80
2014,12,12,14,46,9.80
2014,12,12,14,47,9.70
2014,12,12,14,48,9.70
2014,12,12,14,49,9.70
2014,12,12,14,50,9.70
2014,12,12,14,51,9.70
2014,12,12,14,52,9.70
2014,12,12,14,53,9.70
2014,12,12,14,54,9.70
2014,12,12,14,55,9.70
2014,12,12,14,56,9.60
2014,12,12,14,57,9.60
2014,12,12,14,58,9.60
2014,12,12,14,59,9.60
2014,12,12,15,00,9.50
2014,12,12,15,01,9.50
2014,12,12,15,02,9.50
2014,12,12,15,03,9.50
2014,12,12,15,04,9.50
2014,12,12,15,05,9.40
2014,12,12,15,06,9.40
2014,12,12,15,07,9.40
2014,12,12,15,08,9.40
2014,12,12,15,09,9.30
2014,12,12,15,10,9.30
2014,12,12,15,11,9.20
2014,12,12,15,12,9.20
2014,12,12,15,13,9.20
2014,12,12,15,14,9.20
2014,12,12,15,15,9.20
2014,12,12,15,16,9.20
2014,12,12,15,17,9.20
2014,12,12,15,18,9.20
2014,12,12,15,19,9.20
2014,12,12,15,20,9.20
2014,12,12,15,21,9.20
2014,12,12,15,22,9.20
2014,12,12,15,23,9.20
2014,12,12,15,24,9.20
2014,12,12,15,25,9.20
2014,12,12,15,26,9.20
2014,12,12,15,27,9.20
2014,12,12,15,28,9.10
2014,12,12,15,29,9.10
2014,12,12,15,30,9.10
2014,12,12,15,31,9.10
2014,12,12,15,32,9.10
2014,12,12,15,33,9.10
2014,12,12,15,34,9.10
2014,12,12,15,35,9.00
2014,12,12,15,36,9.00
2014,12,12,15,37,9.00
2014,12,12,15,38,9.00
2014,12,12,15,39,9.00
2014,12,12,15,40,9.00
2014,12,12,15,41,8.90
2014,12,12,15,42,8.90
2014,12,12,15,43,8.90
2014,12,12,15,44,8.90
2014,12,12,15,45,8.90
2014,12,12,15,46,8.80
2014,12,12,15,47,8.80
2014,12,12,15,48,8.80
2014,12,12,15,49,8.70
2014,12,12,15,50,8.70
2014,12,12,15,51,8.70
2014,12,12,15,52,8.70
2014,12,12,15,53,8.70
2014,12,12,15,54,8.60
2014,12,12,15,55,8.60
2014,12,12,15,56,8.60
2014,12,12,15,57,8.50
2014,12,12,15,58,8.50
2014,12,12,15,59,8.50
2014,12,12,16,00,8.40
2014,12,12,16,01,8.40
2014,12,12,16,02,8.40
2014,12,12,16,03,8.40
2014,12,12,16,04,8.30
2014,12,12,16,05,8.30
2014,12,12,16,06,8.30
2014,12,12,16,07,8.20
2014,12,12,16,08,8.20
2014,12,12,16,09,8.20
2014,12,12,16,10,8.20
2014,12,12,16,11,8.20
2014,12,12,16,12,8.20
2014,12,12,16,13,8.20
2014,12,12,16,14,8.20
2014,12,12,16,15,8.20
2014,12,12,16,16,8.20
2014,12,12,16,17,8.10
2014,12,12,16,18,8.10
2014,12,12,16,19,8.10
2014,12,12,16,20,8.10
2014,12,12,16,21,8.00
2014,12,12,16,22,8.00
2014,12,12,16,23,8.00
2014,12,12,16,24,7.90
2014,12,12,16,25,7.90
2014,12,12,16,26,7.90
2014,12,12,16,27,7.90
2014,12,12,16,28,7.90
2014,12,12,16,29,7.80
2014,12,12,16,34,7.80
2014,12,12,16,35,7.80
2014,12,12,16,36,7.80
2014,12,12,16,37,7.80
2014,12,12,16,38,7.70
2014,12,12,16,39,7.70
2014,12,12,16,40,7.70
2014,12,12,16,41,7.70
2014,12,12,16,42,7.70
2014,12,12,16,43,7.70
2014,12,12,16,44,7.60
2014,12,12,16,45,7.60
2014,12,12,16,46,7.60
2014,12,12,16,47,7.60
2014,12,12,16,48,7.60
2014,12,12,16,49,7.60
2014,12,12,16,50,7.60
2014,12,12,16,51,7.60
2014,12,12,16,52,7.60
2014,12,12,16,53,7.50
2014,12,12,16,54,7.60
2014,12,12,16,55,7.50
2014,12,12,16,56,7.50
2014,12,12,16,57,7.50
2014,12,12,16,58,7.50
2014,12,12,17,17,7.30
2014,12,12,17,18,7.30
2014,12,12,17,19,7.30
2014,12,12,17,20,7.30
2014,12,12,17,21,7.30
2014,12,12,17,22,7.30
2014,12,12,17,23,7.30
2014,12,12,17,24,7.30
2014,12,12,17,25,7.20
2014,12,12,17,26,7.20
2014,12,12,17,27,7.20
2014,12,12,17,28,7.20
2014,12,12,17,29,7.20
2014,12,12,17,30,7.10
2014,12,12,17,31,7.10
2014,12,12,17,32,7.10
2014,12,12,17,33,7.00
2014,12,12,17,34,7.00
2014,12,12,17,35,7.00
2014,12,12,17,36,7.00
2014,12,12,17,37,7.00
2014,12,12,17,38,7.00
2014,12,12,17,39,7.00
2014,12,12,17,40,6.90
2014,12,12,17,41,6.90
2014,12,12,17,42,6.90
2014,12,12,17,43,6.90
2014,12,12,17,44,6.90
2014,12,12,17,45,6.90
2014,12,12,17,46,6.90
2014,12,12,17,47,6.90
2014,12,12,17,48,6.80
2014,12,12,17,49,6.80
2014,12,12,17,50,6.80
2014,12,12,17,51,6.80
2014,12,12,17,52,6.80
2014,12,12,17,53,6.80
2014,12,12,17,54,6.80
2014,12,12,17,55,6.80
2014,12,12,17,56,6.80
2014,12,12,17,57,6.80
2014,12,12,17,58,6.80
2014,12,12,17,59,6.80
2014,12,12,18,00,6.80
2014,12,12,18,01,6.70
2014,12,12,18,02,6.70
2014,12,12,18,03,6.70
2014,12,12,18,04,6.70
2014,12,12,18,05,6.70
2014,12,12,18,06,6.70
2014,12,12,18,07,6.70
2014,12,12,18,08,6.70
2014,12,12,18,09,6.70
2014,12,12,18,10,6.70
2014,12,12,18,11,6.70
2014,12,12,18,12,6.70
2014,12,12,18,13,6.70
2014,12,12,18,14,6.70
2014,12,12,18,15,6.70
2014,12,12,18,16,6.70
2014,12,12,18,17,6.70
2014,12,12,18,18,6.70
2014,12,12,18,19,6.70
2014,12,12,18,20,6.70
2014,12,12,18,21,6.70
2014,12,12,18,22,6.70
2014,12,12,18,23,6.70
2014,12,12,18,24,6.70
2014,12,12,18,25,6.70
2014,12,12,18,26,6.70
2014,12,12,18,27,6.70
2014,12,12,18,28,6.70